Simultaneous Nadir Overpasses (SNOs) Predictions

Prediction of SNOs between GOES-16 and NPP Satellite Orbit:

Table of predicted SNOs for the next 14.0 days since TLE Epoch: 11/28/2020
Index Date Time (GOES-16) GOES-16 Lat,Lon NPP Lat,Lon Distance(km) Time Diff (sec)
1 11/28/2020 18:16:28 0.00, -75.20 0.56, -72.66 289.07 80
2 11/30/2020 06:38:14 -0.00, -75.20 0.63, -77.92 310.65 80
3 12/01/2020 06:16:48 0.00, -75.21 -0.38, -73.39 206.90 80
4 12/02/2020 18:38:44 -0.01, -75.23 -0.81, -78.69 394.87 80
5 12/03/2020 18:22:38 -0.01, -75.24 0.20, -74.15 123.16 80
6 12/05/2020 06:44:26 0.02, -75.25 0.93, -79.43 475.54 80
7 12/06/2020 06:23:00 0.02, -75.26 -0.08, -74.90 42.46 80
8 12/08/2020 18:26:10 -0.02, -75.31 -0.09, -75.67 40.43 80
9 12/09/2020 18:10:04 -0.02, -75.33 0.92, -71.13 478.27 80
10 12/11/2020 06:31:51 0.03, -75.35 0.26, -76.40 119.04 80
11 12/12/2020 06:10:25 0.03, -75.37 -0.75, -71.86 399.60 80
